TimeCDT,TemperatureF,Dew PointF,Humidity,Sea Level PressureIn,VisibilityMPH,Wind Direction,Wind SpeedMPH,Gust SpeedMPH,PrecipitationIn,Events,Conditions,WindDirDegrees,DateUTC
12:15 AM,46.9,42.8,86,29.95,10.0,WSW,3.5,-,N/A,,Mostly Cloudy,240,2013-10-17 05:15:00
12:35 AM,46.9,42.8,86,29.94,10.0,WSW,3.5,-,N/A,,Overcast,240,2013-10-17 05:35:00
12:55 AM,46.9,42.4,84,29.94,10.0,West,3.5,-,N/A,,Overcast,260,2013-10-17 05:55:00
1:15 AM,46.9,42.6,85,29.94,10.0,WSW,3.5,-,N/A,,Overcast,250,2013-10-17 06:15:00
1:35 AM,46.9,42.8,86,29.94,10.0,Calm,Calm,-,N/A,,Overcast,0,2013-10-17 06:35:00
1:55 AM,46.9,42.8,86,29.94,10.0,SW,3.5,-,N/A,,Mostly Cloudy,230,2013-10-17 06:55:00
2:15 AM,46.9,43.0,86,29.94,10.0,WSW,4.6,-,N/A,,Mostly Cloudy,240,2013-10-17 07:15:00
2:35 AM,46.8,42.8,86,29.94,10.0,WSW,4.6,-,N/A,,Overcast,250,2013-10-17 07:35:00
2:55 AM,46.9,42.6,85,29.93,10.0,West,3.5,-,N/A,,Overcast,260,2013-10-17 07:55:00
3:15 AM,46.4,41.9,84,29.92,10.0,West,4.6,-,N/A,,Overcast,260,2013-10-17 08:15:00
3:35 AM,45.7,40.6,83,29.92,10.0,West,3.5,-,N/A,,Overcast,270,2013-10-17 08:35:00
3:55 AM,44.6,39.6,82,29.91,10.0,Calm,Calm,-,N/A,,Overcast,0,2013-10-17 08:55:00
4:15 AM,44.4,39.6,83,29.91,10.0,WSW,5.8,-,N/A,,Scattered Clouds,250,2013-10-17 09:15:00
4:35 AM,43.5,38.3,82,29.91,10.0,Calm,Calm,-,N/A,,Clear,0,2013-10-17 09:35:00
4:55 AM,43.2,38.3,83,29.90,10.0,Calm,Calm,-,N/A,,Clear,0,2013-10-17 09:55:00
5:15 AM,42.8,38.5,85,29.90,10.0,Calm,Calm,-,N/A,,Clear,0,2013-10-17 10:15:00
5:35 AM,42.3,38.5,86,29.89,10.0,SW,3.5,-,N/A,,Clear,220,2013-10-17 10:35:00
5:55 AM,42.8,38.7,85,29.90,10.0,SW,3.5,-,N/A,,Clear,230,2013-10-17 10:55:00
6:15 AM,42.4,38.3,85,29.90,10.0,Calm,Calm,-,N/A,,Clear,0,2013-10-17 11:15:00
6:35 AM,42.3,37.8,84,29.88,10.0,Calm,Calm,-,N/A,,Clear,0,2013-10-17 11:35:00
6:55 AM,42.1,37.4,83,29.88,10.0,Calm,Calm,-,N/A,,Clear,0,2013-10-17 11:55:00
7:15 AM,41.9,37.4,84,29.88,10.0,Calm,Calm,-,N/A,,Clear,0,2013-10-17 12:15:00
7:35 AM,41.9,37.8,85,29.88,10.0,Calm,Calm,-,N/A,,Clear,0,2013-10-17 12:35:00
7:55 AM,41.9,37.9,86,29.89,10.0,Calm,Calm,-,N/A,,Clear,0,2013-10-17 12:55:00
8:15 AM,41.9,38.3,87,29.89,10.0,Calm,Calm,-,N/A,,Clear,0,2013-10-17 13:15:00
8:35 AM,41.9,38.1,86,29.89,10.0,Calm,Calm,-,N/A,,Clear,0,2013-10-17 13:35:00
8:55 AM,41.9,37.8,85,29.90,10.0,WSW,3.5,-,N/A,,Clear,240,2013-10-17 13:55:00
9:15 AM,42.8,38.3,84,29.90,10.0,Calm,Calm,-,N/A,,Clear,0,2013-10-17 14:15:00
9:35 AM,43.2,38.1,82,29.90,10.0,Calm,Calm,-,N/A,,Clear,0,2013-10-17 14:35:00
9:55 AM,43.7,38.3,81,29.90,10.0,WNW,3.5,-,N/A,,Clear,290,2013-10-17 14:55:00
10:15 AM,46.9,40.5,78,29.90,10.0,Calm,Calm,-,N/A,,Clear,0,2013-10-17 15:15:00
10:35 AM,49.5,39.4,68,29.90,10.0,West,4.6,-,N/A,,Clear,260,2013-10-17 15:35:00
10:55 AM,51.4,39.0,63,29.90,10.0,WNW,3.5,-,N/A,,Clear,290,2013-10-17 15:55:00
11:15 AM,54.5,39.4,57,29.89,10.0,WSW,5.8,-,N/A,,Clear,250,2013-10-17 16:15:00
11:35 AM,54.5,36.9,51,29.88,10.0,WNW,5.8,-,N/A,,Clear,300,2013-10-17 16:35:00
11:55 AM,54.5,33.6,45,29.88,10.0,WNW,4.6,-,N/A,,Clear,290,2013-10-17 16:55:00
12:15 PM,57.2,35.2,44,29.88,10.0,West,5.8,-,N/A,,Clear,280,2013-10-17 17:15:00
12:35 PM,57.2,34.5,43,29.87,10.0,West,9.2,-,N/A,,Scattered Clouds,280,2013-10-17 17:35:00
12:55 PM,57.6,33.4,40,29.87,10.0,WSW,10.4,18.4,N/A,,Scattered Clouds,250,2013-10-17 17:55:00
1:15 PM,59.5,35.1,40,29.85,10.0,West,10.4,-,N/A,,Clear,280,2013-10-17 18:15:00
1:35 PM,58.6,32.5,37,29.85,10.0,West,5.8,17.3,N/A,,Clear,280,2013-10-17 18:35:00
1:55 PM,59.5,32.0,35,29.84,10.0,West,9.2,-,N/A,,Clear,280,2013-10-17 18:55:00
2:15 PM,60.8,31.3,33,29.84,10.0,West,10.4,-,N/A,,Clear,270,2013-10-17 19:15:00
2:35 PM,60.8,31.5,33,29.83,10.0,West,8.1,-,N/A,,Clear,260,2013-10-17 19:35:00
2:55 PM,60.8,30.9,32,29.82,10.0,WSW,9.2,-,N/A,,Clear,250,2013-10-17 19:55:00
3:15 PM,60.6,30.7,32,29.82,10.0,West,6.9,-,N/A,,Clear,260,2013-10-17 20:15:00
3:35 PM,60.8,30.0,31,29.82,10.0,WSW,9.2,-,N/A,,Clear,250,2013-10-17 20:35:00
3:55 PM,60.3,30.2,32,29.82,10.0,West,6.9,-,N/A,,Clear,260,2013-10-17 20:55:00
4:15 PM,60.8,30.4,32,29.82,10.0,WSW,6.9,-,N/A,,Clear,250,2013-10-17 21:15:00
4:35 PM,59.5,29.3,32,29.82,10.0,WSW,8.1,-,N/A,,Clear,240,2013-10-17 21:35:00
4:55 PM,59.5,29.3,32,29.82,10.0,WSW,8.1,-,N/A,,Clear,250,2013-10-17 21:55:00
5:15 PM,59.4,31.1,34,29.82,10.0,West,6.9,16.1,N/A,,Clear,260,2013-10-17 22:15:00
5:35 PM,58.5,30.9,35,29.82,10.0,West,3.5,-,N/A,,Clear,260,2013-10-17 22:35:00
5:55 PM,57.2,31.6,38,29.82,10.0,WSW,4.6,-,N/A,,Clear,250,2013-10-17 22:55:00
6:15 PM,54.5,31.5,42,29.82,10.0,WSW,3.5,-,N/A,,Clear,240,2013-10-17 23:15:00
6:35 PM,54.5,33.1,44,29.83,10.0,SW,3.5,-,N/A,,Clear,230,2013-10-17 23:35:00
6:55 PM,52.0,33.4,49,29.83,10.0,WSW,4.6,-,N/A,,Clear,250,2013-10-17 23:55:00
7:15 PM,52.0,32.9,48,29.83,10.0,WSW,4.6,-,N/A,,Clear,250,2013-10-18 00:15:00
7:35 PM,50.2,32.7,51,29.83,10.0,WSW,3.5,-,N/A,,Clear,250,2013-10-18 00:35:00
7:55 PM,49.5,32.7,53,29.84,10.0,West,3.5,-,N/A,,Clear,260,2013-10-18 00:55:00
8:15 PM,49.5,35.8,59,29.84,10.0,Calm,Calm,-,N/A,,Clear,0,2013-10-18 01:15:00
8:35 PM,49.3,36.0,60,29.84,10.0,Calm,Calm,-,N/A,,Clear,0,2013-10-18 01:35:00
8:55 PM,43.3,33.8,69,29.84,10.0,Calm,Calm,-,N/A,,Clear,0,2013-10-18 01:55:00
9:15 PM,43.2,34.9,73,29.84,10.0,Calm,Calm,-,N/A,,Clear,0,2013-10-18 02:15:00
9:35 PM,42.8,34.7,73,29.84,10.0,Calm,Calm,-,N/A,,Clear,0,2013-10-18 02:35:00
9:55 PM,41.9,35.1,77,29.84,10.0,Calm,Calm,-,N/A,,Clear,0,2013-10-18 02:55:00
10:15 PM,43.3,34.9,72,29.85,10.0,WSW,6.9,-,N/A,,Clear,250,2013-10-18 03:15:00
10:35 PM,49.5,36.9,62,29.86,10.0,West,9.2,-,N/A,,Clear,260,2013-10-18 03:35:00
10:55 PM,47.8,37.6,68,29.87,10.0,WNW,8.1,-,N/A,,Clear,290,2013-10-18 03:55:00
11:15 PM,46.8,38.8,74,29.87,10.0,WNW,9.2,-,N/A,,Clear,290,2013-10-18 04:15:00
11:35 PM,44.8,38.5,79,29.87,10.0,WNW,8.1,-,N/A,,Clear,300,2013-10-18 04:35:00
11:55 PM,44.6,39.6,82,29.88,10.0,WNW,9.2,-,N/A,,Clear,300,2013-10-18 04:55:00